User: anonymous
Location: Muenchen
(48.1800°N, 11.5800°E)
Time: 08:44:31
(UTC+02:00)
Language:

Tiros 1 - Orbit

View from above orbital plane
View from above orbital plane
View from above satellite
View from above satellite

Ground track
Ground track

The orbit data is extracted from the following two-line orbital elements,

1 00029U 60002B   14244.40135538  .00000148  00000-0  54010-4 0  3084
2 00029 048.3788 210.8405 0024666 184.6463 175.4222 14.73284197906472
Epoch (UTC): 01 September 2014 09:37:57
Eccentricity: 0.0024666
inclination: 48.3788°
perigee height: 633 km
apogee height: 668 km
right ascension of ascending node: 210.8405°
argument of perigee: 184.6463°
revolutions per day: 14.73284197
mean anomaly at epoch: 175.4222°
orbit number at epoch: 90647

The dashed part of the orbit path shows where the satellite is in the earth's shadow,  

DLR